TimePST,TemperatureF,Dew PointF,Humidity,Sea Level PressureIn,VisibilityMPH,Wind Direction,Wind SpeedMPH,Gust SpeedMPH,PrecipitationIn,Events,Conditions,WindDirDegrees,DateUTC
12:26 AM,48.0,44.1,86,29.87,2.5,Variable,5.8,-,0.01,Rain,Light Rain,0,2013-12-21 08:26:00
12:37 AM,48.0,44.1,86,29.87,1.5,Variable,5.8,-,0.01,Rain,Light Rain,0,2013-12-21 08:37:00
12:53 AM,48.0,44.1,86,29.88,2.0,West,3.5,-,0.02,Rain,Light Rain,280,2013-12-21 08:53:00
1:01 AM,48.0,44.1,86,29.88,3.0,WNW,3.5,-,0.00,,Overcast,290,2013-12-21 09:01:00
1:07 AM,48.0,44.1,86,29.88,1.8,West,3.5,-,0.00,Rain,Light Rain,270,2013-12-21 09:07:00
1:23 AM,48.0,44.1,86,29.88,2.0,West,4.6,-,0.01,Rain,Light Rain,280,2013-12-21 09:23:00
1:35 AM,48.0,44.1,86,29.88,5.0,WNW,4.6,-,0.01,,Overcast,290,2013-12-21 09:35:00
1:53 AM,48.0,44.1,86,29.90,3.0,West,5.8,-,0.01,Rain,Light Rain,270,2013-12-21 09:53:00
2:15 AM,46.9,44.1,90,29.91,2.0,Variable,3.5,-,0.00,,Overcast,0,2013-12-21 10:15:00
2:27 AM,46.9,44.1,90,29.91,1.5,Calm,Calm,-,0.00,Rain,Light Rain,0,2013-12-21 10:27:00
2:46 AM,46.9,44.1,90,29.92,2.0,Calm,Calm,-,0.01,,Overcast,0,2013-12-21 10:46:00
2:48 AM,46.4,44.6,93,29.92,1.8,Calm,Calm,-,0.01,,Overcast,0,2013-12-21 10:48:00
2:53 AM,46.9,44.1,90,29.92,1.5,Calm,Calm,-,0.01,,Overcast,0,2013-12-21 10:53:00
3:06 AM,46.9,44.1,90,29.92,1.5,Calm,Calm,-,N/A,,Overcast,0,2013-12-21 11:06:00
3:16 AM,46.9,44.1,90,29.93,3.0,Calm,Calm,-,N/A,,Overcast,0,2013-12-21 11:16:00
3:27 AM,46.9,44.1,90,29.94,2.5,Calm,Calm,-,N/A,,Overcast,0,2013-12-21 11:27:00
3:34 AM,46.9,44.1,90,29.94,4.0,Calm,Calm,-,N/A,,Overcast,0,2013-12-21 11:34:00
3:53 AM,46.9,44.1,90,29.94,7.0,Calm,Calm,-,N/A,,Overcast,0,2013-12-21 11:53:00
4:35 AM,46.9,44.1,90,29.96,2.5,Calm,Calm,-,N/A,,Overcast,0,2013-12-21 12:35:00
4:48 AM,46.4,44.6,93,29.96,4.0,Calm,Calm,-,N/A,,Overcast,0,2013-12-21 12:48:00
4:53 AM,46.9,44.1,90,29.97,4.0,West,3.5,-,N/A,,Overcast,260,2013-12-21 12:53:00
5:13 AM,46.0,43.0,89,29.98,5.0,WSW,3.5,-,N/A,,Overcast,240,2013-12-21 13:13:00
5:53 AM,46.9,43.0,86,30.00,4.0,Calm,Calm,-,N/A,,Overcast,0,2013-12-21 13:53:00
6:19 AM,46.0,43.0,89,30.00,4.0,Calm,Calm,-,N/A,,Overcast,0,2013-12-21 14:19:00
6:41 AM,46.0,43.0,89,30.01,4.0,South,3.5,-,N/A,,Overcast,180,2013-12-21 14:41:00
6:53 AM,46.0,43.0,89,30.02,2.0,South,3.5,-,N/A,,Overcast,180,2013-12-21 14:53:00
7:12 AM,46.0,43.0,89,30.02,1.5,Calm,Calm,-,N/A,,Overcast,0,2013-12-21 15:12:00
7:27 AM,46.0,43.0,89,30.02,2.0,Calm,Calm,-,N/A,,Overcast,0,2013-12-21 15:27:00
7:40 AM,46.0,43.0,89,30.02,1.8,Variable,4.6,-,N/A,,Overcast,0,2013-12-21 15:40:00
7:53 AM,46.0,43.0,89,30.03,2.5,Calm,Calm,-,N/A,,Overcast,0,2013-12-21 15:53:00
7:56 AM,46.0,43.0,89,30.03,3.0,Calm,Calm,-,N/A,,Overcast,0,2013-12-21 15:56:00
8:03 AM,46.0,44.1,93,30.03,2.0,Calm,Calm,-,N/A,,Overcast,0,2013-12-21 16:03:00
8:36 AM,46.9,44.1,90,30.04,3.0,Calm,Calm,-,N/A,,Overcast,0,2013-12-21 16:36:00
8:53 AM,46.9,44.1,90,30.05,3.0,Calm,Calm,-,N/A,,Overcast,0,2013-12-21 16:53:00
9:40 AM,46.9,44.1,90,30.07,4.0,SSW,4.6,-,N/A,,Overcast,200,2013-12-21 17:40:00
9:53 AM,46.9,44.1,90,30.08,4.0,SSW,4.6,-,N/A,,Overcast,200,2013-12-21 17:53:00
10:13 AM,48.0,45.0,89,30.08,4.0,SSW,3.5,-,N/A,,Overcast,200,2013-12-21 18:13:00
10:25 AM,48.0,45.0,89,30.08,4.0,South,3.5,-,N/A,,Overcast,190,2013-12-21 18:25:00
10:53 AM,48.9,45.0,86,30.09,4.0,SSW,4.6,-,N/A,,Mostly Cloudy,210,2013-12-21 18:53:00
11:08 AM,48.9,45.0,86,30.09,4.0,SW,4.6,-,N/A,,Mostly Cloudy,220,2013-12-21 19:08:00
11:19 AM,48.9,45.0,86,30.09,4.0,SW,5.8,-,N/A,,Mostly Cloudy,230,2013-12-21 19:19:00
11:31 AM,50.0,45.0,83,30.09,4.0,SSW,5.8,-,N/A,,Haze,210,2013-12-21 19:31:00
11:53 AM,48.9,45.0,86,30.08,5.0,SW,4.6,-,N/A,,Overcast,220,2013-12-21 19:53:00
12:00 PM,48.9,44.1,83,30.08,5.0,SW,6.9,-,N/A,,Haze,230,2013-12-21 20:00:00
12:28 PM,48.9,44.1,83,30.10,5.0,WSW,9.2,-,N/A,,Haze,240,2013-12-21 20:28:00
12:53 PM,48.9,44.1,83,30.10,4.0,WSW,8.1,-,N/A,,Haze,240,2013-12-21 20:53:00
1:06 PM,48.9,44.1,83,30.11,5.0,WSW,6.9,-,N/A,,Haze,250,2013-12-21 21:06:00
1:13 PM,48.9,44.1,83,30.11,5.0,SW,8.1,-,N/A,,Haze,230,2013-12-21 21:13:00
1:34 PM,48.9,44.1,83,30.11,5.0,WSW,8.1,-,N/A,,Haze,240,2013-12-21 21:34:00
1:53 PM,48.0,44.1,86,30.12,5.0,WSW,5.8,-,N/A,,Overcast,240,2013-12-21 21:53:00
2:19 PM,48.0,44.1,86,30.10,4.0,SSW,6.9,-,0.00,Rain,Light Rain,210,2013-12-21 22:19:00
2:53 PM,48.0,44.1,86,30.12,4.0,SW,5.8,-,0.00,,Overcast,230,2013-12-21 22:53:00
3:24 PM,46.9,44.1,90,30.13,2.5,WSW,3.5,-,0.00,Rain,Light Rain,250,2013-12-21 23:24:00
3:35 PM,48.0,44.1,86,30.13,2.5,Calm,Calm,-,0.00,Rain,Light Rain,0,2013-12-21 23:35:00
3:42 PM,46.9,44.1,90,30.13,3.0,Calm,Calm,-,0.00,Rain,Light Rain,0,2013-12-21 23:42:00
3:53 PM,46.9,44.1,90,30.15,3.0,Calm,Calm,-,0.00,,Overcast,0,2013-12-21 23:53:00
4:14 PM,46.9,44.1,90,30.14,2.5,Calm,Calm,-,0.01,Rain,Light Rain,0,2013-12-22 00:14:00
4:38 PM,46.9,44.1,90,30.14,3.0,Calm,Calm,-,0.01,Rain,Light Rain,0,2013-12-22 00:38:00
4:53 PM,46.9,44.1,90,30.14,3.0,Calm,Calm,-,0.02,Rain,Light Rain,0,2013-12-22 00:53:00
5:05 PM,46.9,44.1,90,30.14,4.0,Calm,Calm,-,0.00,Rain,Light Rain,0,2013-12-22 01:05:00
5:13 PM,46.9,44.1,90,30.13,4.0,Calm,Calm,-,0.00,Rain,Light Rain,0,2013-12-22 01:13:00
5:45 PM,46.9,44.1,90,30.12,1.8,South,3.5,-,0.01,Rain,Light Rain,170,2013-12-22 01:45:00
5:53 PM,46.9,44.1,90,30.13,1.2,South,3.5,-,0.01,Rain,Light Rain,190,2013-12-22 01:53:00
6:18 PM,46.9,44.1,90,30.12,2.0,Calm,Calm,-,0.00,Rain,Light Rain,0,2013-12-22 02:18:00
6:35 PM,46.9,44.1,90,30.13,1.8,SSW,3.5,-,0.01,Rain,Light Rain,200,2013-12-22 02:35:00
6:53 PM,46.9,44.1,90,30.15,1.8,Calm,Calm,-,0.02,Rain,Light Rain,0,2013-12-22 02:53:00
7:21 PM,46.9,44.1,90,30.15,2.5,SSW,3.5,-,0.02,Rain,Light Rain,210,2013-12-22 03:21:00
7:31 PM,46.9,44.1,90,30.14,3.0,South,4.6,-,0.02,Rain,Light Rain,170,2013-12-22 03:31:00
7:42 PM,46.9,44.1,90,30.13,2.5,SSE,3.5,-,0.03,Rain,Light Rain,150,2013-12-22 03:42:00
7:53 PM,46.9,44.1,90,30.14,1.8,Variable,3.5,-,0.03,Rain,Light Rain,0,2013-12-22 03:53:00
8:13 PM,46.9,44.1,90,30.14,1.2,Calm,Calm,-,0.00,Rain,Light Rain,0,2013-12-22 04:13:00
8:53 PM,46.9,44.1,90,30.16,1.2,Calm,Calm,-,0.02,Rain,Light Rain,0,2013-12-22 04:53:00
9:10 PM,46.9,44.1,90,30.14,1.2,Variable,3.5,-,0.01,Rain,Light Rain,0,2013-12-22 05:10:00
9:53 PM,46.9,44.1,90,30.14,1.0,SSE,4.6,-,0.01,,Overcast,150,2013-12-22 05:53:00
10:53 PM,46.9,44.1,90,30.15,1.0,SSE,4.6,-,0.02,Rain,Light Rain,150,2013-12-22 06:53:00
11:53 PM,46.9,44.1,90,30.15,1.2,SE,5.8,-,0.02,Rain,Light Rain,140,2013-12-22 07:53:00